Find Starlink 37230

NORAD ID: 68731 Int'l Des: 2026-082 Owner: SPXS Country: US Constellation: starlink operational
LEOCIRCULARRETROGRADE

リアルタイム位置

3D地球を読み込み中...

Starlink 37230について

説明を読み込み中...

次回通過

Passes for default location (London). Set your location on the main map for personalized predictions.

高度履歴

Loading altitude history...

軌道要素

1 68731C 26082C 26105.41715278 .00342340 00000+0 40270-3 0 1052
2 68731 97.2882 326.8397 0010740 271.4135 104.8700 16.08343341 10
Epoch: Apr 15, 2026 • Age: 21 hours

現在のステータス

高度 254.4 km
速度 7.75 km/s
衛星直下点 15.27°N, 17.73°E
打ち上げ日 Apr 15, 2026
運用期間 1 days
タイプ internet

技術仕様

分類 Payload
質量 575.00 kg
乾燥質量 530.00 kg
総質量 575.00 kg
長さ 0.30 m
直径 4.10 m
スパン 29.00 m
形状 Box + pan
製造者 SPXS
バスタイプ Starlink V2MO
フェーズステータス In Orbit
所有者/国 SPXS/US

Most Searched